Regional Weather Roundup
Issued by NWS

Home | Current Version | Previous Version | Graphics & Text | Print | Product List | Glossary On
Versions: 1 2 3 4 5 6 7 8 9 10 11 12 13 14 15 16 17 18 19 20 21 22 23 24 25 26 27 28 29 30 31 32 33 34 35 36 37 38 39 40 41 42 43 44 45 46 47 48 49 50
000
ASUS43 KMKX 232121
RWRWI

WISCONSIN REGIONAL WEATHER ROUNDUP
NATIONAL WEATHER SERVICE MILWAUKEE/SULLIVAN WI
400 PM CDT WED AUG 23 2017

NOTE: "FAIR" INDICATES FEW OR NO CLOUDS BELOW 12,000 FEET WITH NO
SIGNIFICANT WEATHER AND/OR OBSTRUCTIONS TO VISIBILITY.

WIZ001-002-006>008-014>016-023>028-232200-
NORTHWEST WISCONSIN

CITY           SKY/WX    TMP DP  RH WIND       PRES   REMARKS
SUPERIOR ARPT    N/A     67  50  55 CALM      30.05F
ASHLAND        MOSUNNY   66  50  56 NE8       30.08R
HAYWARD        MOSUNNY   66  47  50 N5        30.07S
SIREN          MOSUNNY   69  46  43 CALM      30.07F
CUMBERLAND     MOSUNNY   66  45  45 NW7       30.07F
RICE LAKE      MOSUNNY   67  48  49 NW5       30.08F
CHETEK         MOSUNNY   67  50  53 N7        30.07S
LADYSMITH      MOSUNNY   67  48  50 N7        30.07F
EAU CLAIRE     MOSUNNY   71  49  45 N8        30.05S
MENOMONIE      MOSUNNY   72  50  45 W10       30.06F
NEW RICHMOND   SUNNY     69  49  48 NW8       30.07S
OSCEOLA        PTSUNNY   72  51  46 W8G17     30.09F
$$

WIZ003>005-009-010-017-018-232200-
NORTH CENTRAL WISCONSIN

CITY           SKY/WX    TMP DP  RH WIND       PRES   REMARKS
MANITOWISH WTR SUNNY     62  42  47 NW12      30.06S
ARBOR VITAE    SUNNY     64  44  47 NW7       30.05F
WOODRUFF       SUNNY     64  44  47 NW7       30.05F
RHINELANDER    MOSUNNY   66  46  48 NW10      30.05S
EAGLE RIVER    SUNNY     63  41  44 NW6       30.05S
LAND O LAKES   SUNNY     62  39  42 N9        30.07S
PHILLIPS       MOSUNNY   65  46  49 NW7       30.05S
TOMAHAWK         N/A     66  45  46 W5        30.05S
MEDFORD        PTSUNNY   65  47  52 NW9       30.05S
MERRILL        MOSUNNY   68  46  45 N9        30.05S
$$

WIZ029-030-035-036-043>047-232200-
CENTRAL WISCONSIN

CITY           SKY/WX    TMP DP  RH WIND       PRES   REMARKS
WAUSAU         SUNNY     70  45  40 NW10G20   30.02S
MOSINEE        PTSUNNY   68  50  52 NW8       30.04F
MARSHFIELD     MOSUNNY   69  48  47 NW13      30.04F
STEVENS POINT  MOSUNNY   69  47  45 W12       30.03F
WAUPACA        PTSUNNY   75  46  35 N6        30.02S
WAUTOMA        MOSUNNY   72  48  42 NW8       30.03F
WISC RAPIDS    MOSUNNY   70  49  47 NW10      30.04F
CAMP DOUGLAS   PTSUNNY   73  52  46 NW8       30.04F
$$

WIZ011>013-019>022-031-037>040-048>050-232200-
NORTHEAST WISCONSIN

CITY           SKY/WX    TMP DP  RH WIND       PRES   REMARKS
ANTIGO         MOSUNNY   66  47  51 NW12      30.04S
SHAWANO        PTSUNNY   70  48  45 N6        30.00S
OCONTO         MOSUNNY   69  48  47 N7        29.99F
STURGEON BAY   MOSUNNY   67  51  56 N6        30.01S
GREEN BAY      PTSUNNY   69  54  58 N8        30.00S
MANITOWOC      CLOUDY    65  53  65 E10       30.02S
APPLETON       NOT AVBL
CLINTONVILLE   MOSUNNY   72  45  37 NW10      30.01S
OSHKOSH        MOSUNNY   72  48  42 N12G18    30.01F
$$

WIZ032>034-041-042-053>061-232200-
SOUTHWEST WISCONSIN

CITY           SKY/WX    TMP DP  RH WIND       PRES   REMARKS
LA CROSSE      MOSUNNY   78  53  41 NW10      30.04F
SPARTA         MOSUNNY   72  50  46 NW8       30.05F
VIROQUA        PTSUNNY   70  55  57 N6        30.07S
BOSCOBEL       PTSUNNY   78  49  35 NW12      30.05F
PRAIRIE DU CHI MOSUNNY   76  44  31 N13G18    30.04F
PLATTEVILLE    MOSUNNY   74  51  44 NW9       30.06S
$$

WIZ056-057-062-063-064-067-068-232200-
SOUTH CENTRAL WISCONSIN

CITY           SKY/WX    TMP DP  RH WIND       PRES   REMARKS
REEDSBURG      SUNNY     70  50  49 NW9       30.04S
BARABOO/DELLS  MOSUNNY   74  45  35 NW10G21   30.04S
LONE ROCK      PTSUNNY   75  53  46 NW13      30.04F
MINERAL POINT  SUNNY     73  50  43 NW10G16   30.06F
MADISON        PTSUNNY   73  51  46 NW9       30.03F
MIDDLETON      PTSUNNY   74  51  44 NW15G24   30.04F
WATERTOWN      MOSUNNY   73  52  49 NW10G16   30.02F
MONROE         PTSUNNY   70  48  46 NW9       30.04F
JANESVILLE     PTSUNNY   75  52  43 W9        30.02F
$$

WIZ051-052-058>065-066-070>072-232200-
SOUTHEAST WISCONSIN

CITY           SKY/WX    TMP DP  RH WIND       PRES   REMARKS
MILWAUKEE      PTSUNNY   70  56  61 E7        30.01F
WAUKESHA       MOSUNNY   72  48  43 NW12G17   30.03F
MILWAUKEE/TIMM MOSUNNY   72  45  37 W10       30.02F
RACINE         MOSUNNY   70  56  61 SE7       30.04S
KENOSHA        CLOUDY    74  50  42 N7G16     30.02F
FOND DU LAC    PTSUNNY   72  49  44 N9        30.02S
SHEBOYGAN      MOSUNNY   71  53  52 W12       30.01F
WEST BEND      CLOUDY    68  48  49 N6        30.02F
JUNEAU         MOSUNNY   69  51  51 NW5       30.04S
$$

LSZ147-162-232200-
LAKE SUPERIOR

STATION/POSITION TIME  TEMP    WIND        PRES    WAVE
                       AIR SEA DIR/SP/G            HT/PER
                 (UTC) (F)     (DEG/KT/KT) (MB)    (FT/S)
W MID LAKE BUOY  2050   60 60  250/  6/  6 1017.7F   1/ 4
DEVILS ISLAND    2100   62     130/  3/  5 1018.2F
PORT WING        2040   91     320/  2/  3 1018.3S
SAXON HARBOR     2030   62      50/  6/  9 1018.3S
$$

LMZ867-665-643>646-232200-
LAKE MICHIGAN

STATION/POSITION TIME  TEMP    WIND        PRES    WAVE
                       AIR SEA DIR/SP/G            HT/PER
                 (UTC) (F)     (DEG/KT/KT) (MB)    (FT/S)
S GREEN BAY BUOY 2100   67 71  160/  8/ 10 1015.6F
N MID LAKE BUOY  2050   63 66   60/  6/  8 1016.4R   2/ 4
NORTHPORT PIER   2040   66     360/ 10/ 12 1015.6F
KEWAUNEE LAKESHO 2054   65     120/  7/  9 1015.2F
SHEBOYGAN LAKESH 2100   65     140/  8/  9 1015.9F
PORT WASHINGTON  2040   74     330/  5/  9 1016.9S
ATWATER BUOY     2009   68 71   80/  6/  8 1016.6
MILWAUKEE LAKESH 2100   67     110/ 10/ 11   N/A
S MID LAKE BUOY  2050   66 71   20/  8/ 10 1016.6F   2/ 5
KENOSHA   LAKESH 2100   69      90/  7/ 10 1016.3
$$

TC  - TEMPERATURE IN CELSIUS
VSB - VISIBILITY IN STATUTE MILES
WCI - WIND CHILL INDEX
HX  - HEAT INDEX




USA.gov is the U.S. government's official web portal to all federal, state and local government web resources and services.